Simultaneous Nadir Overpasses (SNOs) Predictions

Prediction of SNOs between AQUA and GOES-15 Satellite Orbit:

Table of predicted SNOs for the next 14.0 days since TLE Epoch: 12/16/2016
Index Date Time (AQUA) AQUA Lat,Lon GOES-15 Lat,Lon Distance(km) Time Diff (sec)
1 12/17/2016 22:28:35 0.43,-133.40 0.04,-135.17 200.98 80
2 12/18/2016 10:49:51 0.67,-138.56 -0.06,-135.19 383.68 80
3 12/20/2016 10:37:40 0.07,-135.60 -0.05,-135.14 52.63 80
4 12/22/2016 10:25:30 -0.60,-132.65 -0.05,-135.10 278.26 80
5 12/22/2016 22:46:54 -0.51,-137.84 0.06,-135.05 317.20 80
6 12/24/2016 22:34:43 0.10,-134.88 0.06,-134.99 13.26 80
7 12/26/2016 22:22:32 0.72,-131.92 0.05,-134.93 342.83 80
8 12/27/2016 10:43:48 0.38,-137.08 -0.06,-134.95 242.10 80
9 12/29/2016 10:31:37 -0.24,-134.12 -0.06,-134.88 86.73 80




NCC Satellite Simultaneous Nadir Overpasses (SNOs) Prediction Service
